sat.trackr.live / text

‹ back to catalog

STARLINK-4398

NORAD 53466 · 2022-099B

PAYLOAD ACTIVE UNKNOWN

§ Identity

Operator
Country
US
Launch date
2022-08-12
Launch site
AFWTR
Launch vehicle
Mass (kg)
RCS (m²)

Purposes: comms

External: N2YO · Heavens-Above · Gunter

§ Orbital elements

Epoch: 2026-05-25T06:00:02.000160Z

Period
93.45 min
Inclination
97.6047°
Eccentricity
0.0001273
Mean motion
15.40899288 rev/d
Perigee alt
442.6 km
Apogee alt
444.3 km
Semi-major
6,821.6 km
B*
1.0766e-2
RAAN
267.2153°
Arg perigee
80.8131°
Mean anomaly
63.1375°
Rev number
568

§ Raw data

STARLINK-43981 53466U 22099B   26145.25002315  .00469900  00000+0  10766-1 0  99902 53466  97.6047 267.2153 0001273  80.8131  63.1375 15.40899288  5687

JSON: /api/v1/satellites/53466 · /tle

For live sub-satellite position, see the globe view (requires WebGL).

§ Visibility from observer

Set your observer location to see the next 7 days of passes ≥ 10°. The values pass through the URL so the page stays shareable.

No JS? Fill the form by hand. The geolocation button needs JavaScript.